Skip Page Navigation
NASA JPL Caltech
NASA Logo - Jet Propulsion Laboratory + View the NASA Portal
+ Center for Near-Earth Object Studies
JPL Home Earth Solar System Stars & Galaxies Technology
JPL Solar System Dynamics
BODIES ORBITS EPHEMERIDES TOOLS PHYSICAL DATA DISCOVERY FAQ SITE MAP
JPL Small-Body Database Browser
Search: [ help ]  
183190 (2002 SC70)
Classification: Main-belt Asteroid          SPK-ID: 2183190
Ephemeris | Orbit Diagram | Orbital Elements | Mission Design | Physical Parameters | Discovery Circumstances ]

[ show orbit diagram ]
Orbital Elements at Epoch 2459000.5 (2020-May-31.0) TDB
Reference: JPL 12 (heliocentric ecliptic J2000)
 Element Value Uncertainty (1-sigma)   Units 
e .2067455343312399 1.7011e-07  
a 2.533119486557269 2.977e-08 au
q 2.00940834478411 4.4723e-07 au
i 9.508795519935665 2.9423e-05 deg
node 2.085078102337516 4.9573e-05 deg
peri 58.76303493201611 0.00016021 deg
M 100.1227777554198 0.00014268 deg
tp 2458590.944908091022
(2019-Apr-17.44490809)
0.00057816 TDB
period 1472.590317533924
4.03
2.5959e-05
7.107e-08
d
yr
n .2444671784905354 4.3095e-09 deg/d
Q 3.056830628330427 3.5924e-08 au
  Orbit Determination Parameters
   # obs. used (total)      152  
   data-arc span      6349 days (17.38 yr)  
   first obs. used      2002-09-14  
   last obs. used      2020-02-01  
   planetary ephem.      DE431  
   SB-pert. ephem.      SB431-N16  
   condition code      0  
   norm. resid. RMS      .63539  
   source      ORB  
   producer      Otto Matic  
   solution date      2020-Feb-24 19:32:15  

Additional Information
 Earth MOID = 1.03974 au 
 Jupiter MOID = 2.37765 au 
 T_jup = 3.401 
[ show covariance matrix ]

Ephemeris | Orbit Diagram | Orbital Elements | Mission Design | Physical Parameters | Discovery Circumstances ]

Physical Parameter Table
Parameter Symbol Value Units Sigma Reference Notes
absolute magnitude H 17.3   n/a MPO454260  

183190 (2002 SC70)          Discovered 2002-Sep-26 by NEAT at Palomar
Reference: 20080420/Numbers.arcLast Updated: 2008-04-23

Alternate Designations
 2002 SC70 = 2006 SD218 
Ephemeris | Orbit Diagram | Orbital Elements | Mission Design | Physical Parameters | Discovery Circumstances ]
ABOUT SSD CREDITS/AWARDS PRIVACY/COPYRIGHT GLOSSARY LINKS
FirstGov 2020-Aug-06 08:23 UT
(server date/time)  
NASA Home Page
Site Manager:   Ryan S. Park
Webmaster  Alan B. Chamberlin